Location: Ch�tillon
(48.8024°N, 2.2935°E)
Time: 23:11:46
(UTC+00:00)

DIWATA 2B (PO-101) - Pass Details

Date: 28 June 2022
Orbit: 583 x 599 km, 98.0° (Epoch: 16 August)

Event Time Altitude Azimuth Distance (km) Brightness Sun altitude
Exits shadow 02:50:21 10° 227° (SW) 1,945 ? -7.9°
Reaches altitude 10° 02:50:24 10° 228° (SW) 1,936 ? -7.9°
Maximum altitude 02:53:10 17° 269° (W) 1,532 ? -7.6°
Drops below altitude 10° 02:55:59 10° 311° (NW) 1,949 ? -7.3°
Sets 02:58:50 0° 332° (NNW) 2,859 ? -7.0°
